Location: Auckland
(36.8670°S, 174.7670°E)
Time: 05:07:27
(UTC+13:00)

Spot 2 Rocket - Pass Details

Date: 24 January 2019
Orbit: 757 x 772 km, 98.6° (Epoch: 17 October)

Event Time Altitude Azimuth Distance (km) Brightness Sun altitude
Rises 23:15:09 0° 174° (S) 3,278 7.5 -25.2°
Reaches altitude 10° 23:17:33 10° 179° (S) 2,342 6.7 -25.5°
Maximum altitude 23:22:30 49° 252° (WSW) 999 4.3 -26.0°
Enters shadow 23:24:45 29° 309° (NW) 1,383 4.7 -26.3°
